Terminal Aerodrome Forecast
Issued by NWS

Home | Current Version | Previous Version | Text Only | Print | Product List | Glossary On
Versions: 1 2 3 4 5 6 7 8 9 10 11 12 13 14 15 16 17 18 19 20 21 22
000
FTUS44 KLIX 261720
TAFMSY
TAF
KMSY 261720Z 2618/2718 18006KT P6SM SCT050
     FM270700 17007KT 5SM BR BKN010
     FM271000 17006KT 2SM BR BKN003
     FM271500 17009KT P6SM BKN015
     FM271600 18010G18KT P6SM BKN020=

USA.gov is the U.S. government's official web portal to all federal, state and local government web resources and services.